Regional Weather Roundup
Issued by NWS

Home | Current Version | Previous Version | Text Only | Print | Product List | Glossary Off
Versions: 1 2 3 4 5 6 7 8 9 10 11 12 13 14 15 16 17 18 19 20 21 22 23 24 25 26 27 28 29 30 31 32 33 34 35 36 37 38 39 40 41 42 43 44 45 46 47 48 49 50

000
ASUS45 KTFX 160004
RWRMT
MONTANA HOURLY WEATHER ROUNDUP
NATIONAL WEATHER SERVICE GREAT FALLS MT
604 PM MDT TUE APR 15 2014

NOTE: "FAIR" INDICATES FEW OR NO CLOUDS BELOW 12000 FEET WITH NO
SIGNIFICANT WEATHER AND/OR OBSTRUCTIONS TO VISIBILITY.

* THESE STATIONS ARE NOT UNDER NWS QUALITY CONTROL. THEY DO NOT
   REPORT WEATHER SUCH AS PRECIPITATION OR FOG.

MTZ001>007-043-160100-
WEST OF THE DIVIDE
CITY           SKY/WX    TMP DP  RH WIND       PRES   REMARKS
KALISPELL      LGT RAIN  39  37  93 E10       29.83R WCI  32
MISSOULA       LGT RAIN  46  32  58 W18       29.90R
BUTTE          PTCLDY    43  18  37 NW22G32   29.80S
MULLAN PASS    MOCLDY    30  28  92 NW8       29.87S WCI  22
* ESSEX        N/A       39  33  79 NW2        N/A
* LINCOLN      N/A       43  30  60 SW7G17     N/A
* LOOKOUT PASS N/A       36  33  89 VRB5G10    N/A   WCI  32
* POLSON       N/A       45  29  54 W4G9       N/A
* RONAN APT    CLOUDY    46  30  54 SW13G18    N/A
* SEELEY LAKE  N/A       43  34  71 W6G14      N/A
* THOMP F APT  MOCLDY    45  20  37 NW12G30    N/A
$$

MTZ008-052>055-160100-
SOUTHWEST MONTANA
CITY           SKY/WX    TMP DP  RH WIND       PRES   REMARKS
BOZEMAN        CLOUDY    39  32  76 E10       29.77F WCI  32
DILLON         PTCLDY    45  18  34 NW26G37   29.79R
W YELLOWSTONE  N/A       43  35  73 W2G10      N/A
* THREE FORKS  CLOUDY    46  32  58 W22G37     N/A
* BOULDER HILL N/A       40  19  43 N9G15      N/A   WCI  34
* MONIDA PASS  N/A       38  11  33 NW35G47    N/A   WCI  25
* RAYNOLDS PAS N/A       33  33 100 VRB12      N/A   WCI  24
* WHITEHALL    N/A       47  21  36 W17G28     N/A
* WISE RIVER   N/A       44  18  35 NW22G34    N/A
$$

MTZ009>010-012-014-046-048-049-054-160100-
EAST SLOPES AND CENTRAL MONTANA
CITY           SKY/WX    TMP DP  RH WIND       PRES   REMARKS
CUT BANK       CLOUDY    39  36  89 N13       29.77R WCI  31
GREAT FALLS    CLOUDY    43  32  65 NW20      29.74R
HELENA         CLOUDY    46  25  44 W22       29.77R
* CONRAD       CLOUDY    46  32  58 W20G31     N/A
* DEARBORN     N/A       41  35  79 NE3        N/A
* EAST GLACIER N/A       38  29  70 SE6        N/A   WCI  33
* MONARCH      N/A       34  27  76 W18G23     N/A   WCI  23
* PENDROY      N/A       40  35  82 NW17G23    N/A   WCI  31
* ROGERS PASS  N/A       37  25  62 SE14G19    N/A   WCI  28
* SAINT MARY   N/A       36  33  89 NE5G10     N/A   WCI  32
* SWEET GRASS  N/A       44  25  47 NW20G28    N/A
$$

MTZ011-013-016-021-035-040-045-047-050-051-160100-
NORTH CENTRAL MONTANA
CITY           SKY/WX    TMP DP  RH WIND       PRES   REMARKS
HAVRE          CLOUDY    54  19  25 N22G29    29.64R
LEWISTOWN      CLOUDY    43  32  65 W20G29    29.68R
* CHESTER      N/A       52  15  23 N14G25     N/A
* DENTON       N/A       47  32  56 W19G24     N/A
* GEYSER       N/A       39  33  79 W20G34     N/A   WCI  29
* JUDITH GAP   N/A       40  32  73 NW20G31    N/A   WCI  30
* LOMA         N/A       53  24  32 W19G30     N/A
$$

MTZ017>020-022>027-061-062-160100-
NORTHEAST MONTANA
CITY           SKY/WX    TMP DP  RH WIND       PRES   REMARKS
GLASGOW        CLOUDY    57  19  23 N10G20    29.52R
GLENDIVE       CLOUDY    59  19  21 W14G20    29.54S
JORDAN         CLOUDY    57  21  25 W22       29.55R
SIDNEY         CLOUDY    55  23  29 E10       29.55R
WOLF POINT     CLOUDY    54  19  25 NE22      29.56R
* BEAVER HILL  N/A       56  20  24 SW17G26    N/A
* CIRCLE       N/A       58  26  29 W9G19      N/A
* LINDSAY DVD  N/A       55  22  28 W17G32     N/A
* NAVAJO       N/A       42  19  40 E11G17     N/A
* SACO         N/A       56  20  24 NW21G27    N/A
$$

MTZ028>042-056>058-160100-
SOUTHCENTRAL AND SOUTHEAST MONTANA
CITY           SKY/WX    TMP DP  RH WIND       PRES   REMARKS
BAKER          CLOUDY    55  21  27 W13       29.56R
BILLINGS       LGT RAIN  45  34  65 NW18G30   29.68R
LIVINGSTON     CLOUDY    39 N/A N/A SW16      29.75S WCI  30
MILES CITY     CLOUDY    57  27  32 W20       29.55S
* LAUREL APT   CLOUDY    41  30  65 W18G33     N/A
* ROUNDUP APT  CLOUDY    48  30  50 W22G35     N/A
* HYSHAM       N/A       49  28  44 W12G20     N/A
* LAME DEER    N/A       47  31  54 NW9G20     N/A
* REED POINT   N/A       44  36  74 W14        N/A
* ROSCOE HILL  N/A       34  29  82 W7G22      N/A   WCI  28
$$

REGIONAL REPORTS...DAKOTAS
CITY           SKY/WX    TMP DP  RH WIND       PRES   REMARKS
WILLISTON      CLOUDY    43  25  49 E26       29.62R
DICKINSON      CLOUDY    48  23  37 E15       29.56R
CROSBY         FAIR      37  19  48 E18G24    29.70R WCI  27
TIOGA          PTCLDY    37  18  46 E23G31    29.69R WCI  26
WATFORD CITY   CLEAR     45  19  35 E17G22    29.58R
BISMARCK       MOCLDY    45  21  38 E20G31    29.70F
GRAND FORKS    CLOUDY    30  12  47 SE10      29.96F WCI  21
FARGO          CLOUDY    34  10  37 SE14      29.98S WCI  24
BUFFALO SD     CLOUDY    59  21  23 NW17      29.48R
RAPID CITY     CLOUDY    61  28  29 SE5       29.53F
$$

REGIONAL REPORTS...WYOMING/IDAHO/WASHINGTON
CITY           SKY/WX    TMP DP  RH WIND       PRES   REMARKS
GILLETTE       CLOUDY    52  27  38 NW15      29.60S
SHERIDAN       CLOUDY    50  30  46 N9        29.61F
CODY           MOCLDY    50  28  43 W14G22    29.62S
YELLOWSTONE LA CLOUDY    30  25  82 NW9G20    29.74S WCI  22
SALMON         MOCLDY    48  21  34 N15G21    29.88R
MULLAN PASS    MOCLDY    30  28  92 NW8       29.87S WCI  22
SPOKANE        MOCLDY    57  19  23 NW14G21   29.90S
$$

REGIONAL REPORTS...ALBERTA
CITY           SKY/WX    TMP DP  RH WIND       PRES   REMARKS
LETHBRIDGE     N/A       46  28  50 NE17G26   29.76R
EDMONTON       LGT SNOW  34  28  79 N16       29.88R WCI  24

$$




USA.gov is the U.S. government's official web portal to all federal, state and local government web resources and services.